Location: Cerbedi�res
(48.2182°N, 1.4849°W)
Time: 02:11:34
(UTC+00:00)

MetOp-A - Pass Details

Date: 03 March 2021
Orbit: 819 x 821 km, 98.5° (Epoch: 12 April)

Event Time Altitude Azimuth Distance (km) Brightness Sun altitude
Exits shadow 19:27:03 - 157° (SSE) 2,977 6.7 -16.4°
Reaches altitude 10° 19:28:28 10° 156° (SSE) 2,414 6.3 -16.6°
Maximum altitude 19:33:48 74° 73° (ENE) 859 4.0 -17.5°
Drops below altitude 10° 19:39:10 10° 349° (N) 2,431 6.9 -18.3°
Sets 19:41:32 0° 348° (NNW) 3,367 7.6 -18.7°
